Location: Feydey
(46.3431°N, 7.0106°E)
Time: 05:11:19
(UTC+00:00)

Cosmos 1328 - Visible Passes

Search period start: 18 October 2021 00:00
Search period end: 28 October 2021 00:00
Orbit: 528 x 553 km, 82.5° (Epoch: 17 October)

Date Brightness Start Highest point End Pass type
(mag) Time Alt. Az. Time Alt. Az. Time Alt. Az.
18 Oct 3.7 18:04:13 10° N 18:08:14 64° E 18:12:14 10° SSE visible
18 Oct 7.1 19:42:36 10° WNW 19:43:53 11° W 19:45:10 10° WSW visible
19 Oct 3.7 17:56:57 10° N 18:00:58 65° E 18:04:58 10° SSE visible
19 Oct 7.1 19:35:23 10° WNW 19:36:36 11° W 19:37:49 10° W visible
20 Oct 3.7 17:49:40 10° N 17:53:41 66° E 17:57:41 10° SSE visible
20 Oct 7.2 19:28:11 10° WNW 19:29:19 11° W 19:30:28 10° W visible
21 Oct 3.7 17:42:23 10° N 17:46:25 67° E 17:50:26 10° SSE visible
21 Oct 7.2 19:20:59 10° WNW 19:22:03 11° W 19:23:06 10° W visible
22 Oct 3.7 17:35:06 10° N 17:39:08 68° E 17:43:09 10° SSE visible
22 Oct 7.3 19:13:47 10° WNW 19:14:46 11° W 19:15:45 10° W visible
23 Oct 3.7 17:27:49 10° N 17:31:52 69° E 17:35:53 10° SSE visible
23 Oct 7.4 19:06:35 10° WNW 19:07:29 11° W 19:08:22 10° W visible
24 Oct 3.7 17:20:32 10° N 17:24:35 70° E 17:28:36 10° SSE visible
24 Oct 7.4 18:59:24 10° WNW 19:00:11 10° W 19:00:58 10° W visible
25 Oct 3.8 17:13:15 10° N 17:17:18 71° E 17:21:20 10° SSE visible
25 Oct 7.5 18:52:14 10° WNW 18:52:54 10° W 18:53:33 10° W visible
26 Oct 3.8 17:05:58 10° N 17:10:01 72° E 17:14:03 10° SSE visible
26 Oct 7.5 18:45:06 10° WNW 18:45:36 10° W 18:46:07 10° W visible
27 Oct 6.4 05:27:46 10° SSE 05:31:05 26° E 05:34:25 10° NNE visible
27 Oct 3.8 16:58:40 10° N 17:02:44 73° E 17:06:46 10° SSE visible
27 Oct 7.6 18:38:02 10° WNW 18:38:19 10° W 18:38:36 10° W visible
